DECAYED

CZ-6A DEB, 54465 (Decayed)

Orbit data source: Space-Track

CZ-6A DEB, 54465 was space debris in LEO originally from a launch on Fri, 11 Nov 2022 UTC launched from the Taiyaun Space Center, China (TSC). Debris objects in space refer to the collection of defunct objects orbiting the Earth. Examples of debris include non-operational satellites, rocket bodies, and fragments generated from explosions, collisions, or faulty payload assembly.

Not visible in the next 10 days
Identifier
54465, 2022-151GR
Orbit
Decayed
Country
Flag of CNCN / PRC
Related business
Manufacturer
SAST
Mission
Decayed spacecraft
Bus & Motor
Unknown
Mass
Unknown
Launch date (UTC)
2022-11-11 (4 years ago)
Launch vehicle
Unknown
Launch site
Taiyaun Space Center, China (TSC)
Object type
Payload
Rocket body
Debris
Shape & HBR
Unknown shape, 0.1 m
Radar Cross Section
Medium (>0.1 m² and <1 m²)

Expand to show TLE details & history
Last TLE update: 1 year ago

TLE from 1 year ago
0 CZ-6A DEB
1 54465U 22151GR  25128.15631424  .15196819  31185-5  84979-2 0  9991
2 54465  98.4882 203.7993 0023916 277.9487  81.9083 16.18583971133604
Epoch: 2025-05-08T03:45Z
TLE epoch observation values (Epoch: 2025-05-08T03:45:05.550Z)
Latitude
-0.00006°
Longitude
-78.70467°
Altitude
224.402 km
Speed
7.773 km/s
True Right ascension
13h 35m 11s
True Declination
0° 00' 00"
Sunlit
Object was in full shadow at epoch
Visualization orbit readout
Latitude
Unknown
Longitude
Unknown
Altitude
Unknown
Speed
Unknown
Apparent Right ascension
Unknown
Apparent Declination
Unknown
Sunlit
N/A
Visualization observer readout
Local Sidereal Time
12:19:42
Azimuth
Unknown
Elevation
Unknown
Doppler factor
Unknown
Orbital elements
Apogee altitude
236.068 km
Perigee altitude
204.506 km
Semi-major axis
6,598.424 km
Eccentricity
0.00239
Inclination
98.4882°
RAAN
203.7993°
Arg. of periapsis
277.9487°
True anomaly
82.17974°
Mean anomaly
81.9083°
Eccentric anomaly
82.04401°
Mean motion
4.04933 °/min
Orbital period
88.9 mins
BSTAR
0.0084979
Loading maneuver chart data...
Computing Atmospheric mass density...
Loading historical data...
Loading historical data...
Loading historical data...
Loading historical data...
Loading historical data...
Loading historical data...
Loading historical data...

Documentation

Showing up to 5 results
|